Tracking 28091 objects as of 29-Sep-2023
HD Live streaming from Space Station
objects crossing your sky now

STARLINK-5407

Track STARLINK-5407 now!
10-day predictions
STARLINK-5407 is classified as:


NORAD ID: 54858
Int'l Code: 2022-177AQ
Perigee: 565.5 km
Apogee: 567.1 km
Inclination: 43.0 °
Period: 95.8 minutes
Semi major axis: 6937 km
RCS: Unknown
Launch date: December 28, 2022
Source: United States (US)
Launch site: AIR FORCE EASTERN TEST RANGE (AFETR)
Your satellite tracking list
Your tracking list is empty




NASA's NSSDC Master Catalog

Two Line Element Set (TLE):
1 54858U 22177AQ  23272.41749894  .00027466  00000-0  20415-2 0  9990
2 54858  43.0026 288.7451 0001142 255.1405 104.9311 15.02514257 41907
Source of the keplerian elements: AFSPC